timestamp,surface_pressure_avg,surface_temp_avg,battery_voltage,lat,long
2018-06-06 00:00:00+00:00,257.1631,2.15,13.05,47.84626,-54.09684
2018-06-06 00:10:00+00:00,256.9814,2.2,12.97,47.84626,-54.09684
2018-06-06 00:20:00+00:00,256.9698,2.2,13.05,47.84626,-54.09684
2018-06-06 00:30:00+00:00,264.5197,2.24,13.05,47.84626,-54.09684
2018-06-06 00:40:00+00:00,270.8514,2.27,13.05,47.84626,-54.09684
2018-06-06 00:50:00+00:00,264.7847,2.29,13.05,47.84626,-54.09684
2018-06-06 01:00:00+00:00,265.5081,2.3,13.05,47.84626,-54.09684
2018-06-06 01:10:00+00:00,279.2614,2.3,12.97,47.84626,-54.09684
2018-06-06 01:20:00+00:00,281.5747,2.3,13.05,47.84626,-54.09684
2018-06-06 01:30:00+00:00,275.3313,2.3,13.05,47.84626,-54.09684
2018-06-06 01:40:00+00:00,278.3964,2.3,13.05,47.84626,-54.09684
2018-06-06 01:50:00+00:00,290.2563,2.3,13.05,47.84626,-54.09684
2018-06-06 02:00:00+00:00,296.3979,2.3,12.97,47.84626,-54.09684
2018-06-06 02:10:00+00:00,297.033,2.3,12.97,47.84626,-54.09684
2018-06-06 02:20:00+00:00,303.3547,2.3,12.97,47.84626,-54.09684
2018-06-06 02:30:00+00:00,315.0081,2.3,12.97,47.84626,-54.09684
2018-06-06 02:40:00+00:00,318.4913,2.3,13.05,47.84626,-54.09684
2018-06-06 02:50:00+00:00,323.0513,2.31,13.05,47.84626,-54.09684
2018-06-06 03:00:00+00:00,324.0547,2.34,12.97,47.84626,-54.09684
2018-06-06 03:10:00+00:00,326.7562,2.35,12.89,47.84626,-54.09684
2018-06-06 03:20:00+00:00,323.2446,2.37,12.97,47.84626,-54.09684
2018-06-06 03:30:00+00:00,332.6997,2.38,12.97,47.84626,-54.09684
2018-06-06 03:40:00+00:00,338.8213,2.39,12.97,47.84626,-54.09684
2018-06-06 03:50:00+00:00,339.9629,2.39,12.97,47.84626,-54.09684
2018-06-06 04:00:00+00:00,341.4896,2.4,12.97,47.84626,-54.09684
2018-06-06 04:10:00+00:00,347.843,2.4,12.89,47.84626,-54.09684
2018-06-06 04:20:00+00:00,346.4215,2.4,12.97,47.84626,-54.09684
2018-06-06 04:30:00+00:00,349.5113,2.4,12.97,47.84626,-54.09684
2018-06-06 04:40:00+00:00,360.718,2.4,12.97,47.84626,-54.09684
2018-06-06 04:50:00+00:00,357.428,2.4,12.97,47.84626,-54.09684
2018-06-06 05:00:00+00:00,346.4579,2.4,12.89,47.84626,-54.09684
2018-06-06 05:10:00+00:00,352.0329,2.4,12.81,47.84626,-54.09684
2018-06-06 05:20:00+00:00,350.1162,2.42,12.89,47.84626,-54.09684
2018-06-06 05:30:00+00:00,336.9413,2.49,12.89,47.84626,-54.09684
2018-06-06 05:40:00+00:00,338.113,2.5,12.97,47.84626,-54.09684
2018-06-06 05:50:00+00:00,348.903,2.5,12.97,47.84626,-54.09684
2018-06-06 06:00:00+00:00,347.5263,2.5,12.89,47.84626,-54.09684
2018-06-06 06:10:00+00:00,336.5548,2.5,12.81,47.84626,-54.09684
2018-06-06 06:20:00+00:00,338.5264,2.5,12.89,47.84626,-54.09684
2018-06-06 06:30:00+00:00,339.148,2.5,12.89,47.84626,-54.09684
2018-06-06 06:40:00+00:00,325.3547,2.54,12.97,47.84626,-54.09684
2018-06-06 06:50:00+00:00,315.7596,2.59,12.97,47.84626,-54.09684
2018-06-06 07:00:00+00:00,314.1195,2.59,12.89,47.84626,-54.09684
2018-06-06 07:10:00+00:00,313.183,2.6,12.81,47.84626,-54.09684
2018-06-06 07:20:00+00:00,302.1414,2.6,12.89,47.84626,-54.09684
2018-06-06 07:30:00+00:00,297.3063,2.69,12.89,47.84626,-54.09684
2018-06-06 07:40:00+00:00,298.7496,2.7,12.89,47.84626,-54.09684
2018-06-06 07:50:00+00:00,295.468,2.7,12.89,47.84626,-54.09684
2018-06-06 08:00:00+00:00,286.823,2.78,12.89,47.84626,-54.09684
2018-06-06 08:10:00+00:00,284.1014,2.8,12.81,47.84626,-54.09684
2018-06-06 08:20:00+00:00,281.7881,2.83,12.89,47.84626,-54.09684
2018-06-06 08:30:00+00:00,268.9164,2.87,12.89,47.84626,-54.09684
2018-06-06 08:40:00+00:00,258.9464,2.9,12.89,47.84626,-54.09684
2018-06-06 08:50:00+00:00,259.143,2.9,12.97,47.84626,-54.09684
2018-06-06 09:00:00+00:00,263.4415,2.9,12.89,47.84626,-54.09684
2018-06-06 09:10:00+00:00,255.7331,3.18,12.81,47.84626,-54.09684
2018-06-06 09:20:00+00:00,249.1196,2.9,12.89,47.84626,-54.09684
2018-06-06 09:30:00+00:00,248.3314,2.96,12.89,47.84626,-54.09684
2018-06-06 09:40:00+00:00,245.9631,3.05,12.97,47.84626,-54.09684
2018-06-06 09:50:00+00:00,239.1448,3.0,12.97,47.84626,-54.09684
2018-06-06 10:00:00+00:00,235.9848,3.01,12.89,47.84626,-54.09684
2018-06-06 10:10:00+00:00,236.143,3.1,12.81,47.84626,-54.09684
2018-06-06 10:20:00+00:00,234.9731,3.17,12.89,47.84626,-54.09684
2018-06-06 10:30:00+00:00,234.4364,3.2,12.97,47.84626,-54.09684
2018-06-06 10:40:00+00:00,236.5831,3.12,12.97,47.84626,-54.09684
2018-06-06 10:50:00+00:00,235.6631,3.2,12.97,47.84626,-54.09684
2018-06-06 11:00:00+00:00,234.1497,3.2,12.97,47.84626,-54.09684
2018-06-06 11:10:00+00:00,236.9799,3.2,12.89,47.84626,-54.09684
2018-06-06 11:20:00+00:00,240.8881,3.2,12.97,47.84626,-54.09684
2018-06-06 11:30:00+00:00,240.6398,3.1,12.97,47.84626,-54.09684
2018-06-06 11:40:00+00:00,237.1131,3.0,13.05,47.84626,-54.09684
2018-06-06 11:50:00+00:00,239.1448,3.03,13.13,47.84626,-54.09684
2018-06-06 12:00:00+00:00,241.9814,3.18,13.13,47.84626,-54.09684
2018-06-06 12:10:00+00:00,245.0731,3.59,13.05,47.84626,-54.09684
2018-06-06 12:20:00+00:00,246.9998,3.33,13.13,47.84626,-54.09684
2018-06-06 12:30:00+00:00,250.5781,3.1,13.21,47.84626,-54.09684
2018-06-06 12:40:00+00:00,251.4348,3.14,13.37,47.84626,-54.09684
2018-06-06 12:50:00+00:00,256.4897,3.1,13.53,47.84626,-54.09684
2018-06-06 13:00:00+00:00,257.9031,3.15,13.53,47.84626,-54.09684
2018-06-06 13:10:00+00:00,259.343,3.1,13.53,47.84626,-54.09684
2018-06-06 13:20:00+00:00,263.4497,3.0,13.68,47.84626,-54.09684
2018-06-06 13:30:00+00:00,268.0597,3.01,13.68,47.84626,-54.09684
2018-06-06 13:40:00+00:00,265.6181,3.05,13.76,47.84626,-54.09684
2018-06-06 13:50:00+00:00,263.4047,3.0,13.84,47.84626,-54.09684
2018-06-06 14:00:00+00:00,269.6731,3.0,13.76,47.84626,-54.09684
2018-06-06 14:10:00+00:00,275.2547,3.08,13.68,47.84626,-54.09684
2018-06-06 14:20:00+00:00,275.1481,3.24,13.92,47.84626,-54.09684
2018-06-06 14:30:00+00:00,279.7397,3.16,13.92,47.84626,-54.09684
2018-06-06 14:40:00+00:00,288.6898,3.0,14.0,47.84626,-54.09684
2018-06-06 14:50:00+00:00,290.028,3.15,14.08,47.84626,-54.09684
2018-06-06 15:00:00+00:00,287.9847,3.3,14.0,47.84626,-54.09684
2018-06-06 15:10:00+00:00,295.783,3.25,14.0,47.84626,-54.09684
2018-06-06 15:20:00+00:00,304.4496,3.2,14.08,47.84626,-54.09684
2018-06-06 15:30:00+00:00,311.688,3.2,14.16,47.84626,-54.09684
2018-06-06 15:40:00+00:00,310.0814,3.2,14.16,47.84626,-54.09684
2018-06-06 15:50:00+00:00,310.7047,3.2,14.16,47.84626,-54.09684
2018-06-06 16:00:00+00:00,311.7679,3.2,14.08,47.84626,-54.09684
2018-06-06 16:10:00+00:00,315.9863,3.2,14.0,47.84626,-54.09684
2018-06-06 16:20:00+00:00,313.5547,3.2,14.08,47.84626,-54.09684
2018-06-06 16:30:00+00:00,314.0847,3.2,14.08,47.84626,-54.09684
2018-06-06 16:40:00+00:00,318.0713,3.2,14.16,47.84626,-54.09684
2018-06-06 16:50:00+00:00,318.5547,3.24,14.32,47.84626,-54.09684
2018-06-06 17:00:00+00:00,316.4263,3.24,14.32,47.84626,-54.09684
2018-06-06 17:10:00+00:00,314.5696,3.2,14.24,47.84626,-54.09684
2018-06-06 17:20:00+00:00,317.1114,3.0,14.48,47.84626,-54.09684
2018-06-06 17:30:00+00:00,320.1296,3.0,14.56,47.84626,-54.09684
2018-06-06 17:40:00+00:00,317.5763,3.0,14.56,47.84626,-54.09684
2018-06-06 17:50:00+00:00,315.3297,3.1,14.48,47.84626,-54.09684
2018-06-06 18:00:00+00:00,315.0063,3.25,14.32,47.84626,-54.09684
2018-06-06 18:10:00+00:00,315.0164,3.3,14.24,47.84626,-54.09684
2018-06-06 18:20:00+00:00,313.168,3.3,14.4,47.84626,-54.09684
2018-06-06 18:30:00+00:00,316.5481,3.3,14.32,47.84626,-54.09684
2018-06-06 18:40:00+00:00,315.9713,3.1,14.32,47.84626,-54.09684
2018-06-06 18:50:00+00:00,307.7531,3.07,14.32,47.84626,-54.09684
2018-06-06 19:00:00+00:00,302.7814,3.28,14.24,47.84626,-54.09684
2018-06-06 19:10:00+00:00,302.6348,3.2,14.16,47.84626,-54.09684
2018-06-06 19:20:00+00:00,303.6447,3.1,14.24,47.84626,-54.09684
2018-06-06 19:30:00+00:00,297.0131,3.0,14.24,47.84626,-54.09684
2018-06-06 19:40:00+00:00,292.843,2.93,14.16,47.84626,-54.09684
2018-06-06 19:50:00+00:00,291.5164,2.9,14.24,47.84626,-54.09684
2018-06-06 20:00:00+00:00,280.9514,2.9,14.16,47.84626,-54.09684
2018-06-06 20:10:00+00:00,269.5214,3.0,14.08,47.84626,-54.09684
2018-06-06 20:20:00+00:00,266.5147,2.9,14.24,47.84626,-54.09684
2018-06-06 20:30:00+00:00,267.9565,2.9,14.24,47.84626,-54.09684
2018-06-06 20:40:00+00:00,264.2647,2.92,14.32,47.84626,-54.09684
2018-06-06 20:50:00+00:00,256.0731,2.97,14.32,47.84626,-54.09684
2018-06-06 21:00:00+00:00,259.7097,2.9,14.16,47.84626,-54.09684
2018-06-06 21:10:00+00:00,258.1914,3.0,14.08,47.84626,-54.09684
2018-06-06 21:20:00+00:00,251.3748,3.22,14.16,47.84626,-54.09684
2018-06-06 21:30:00+00:00,246.3298,3.45,14.08,47.84626,-54.09684
2018-06-06 21:40:00+00:00,248.4414,3.5,14.08,47.84626,-54.09684
2018-06-06 21:50:00+00:00,241.8014,3.51,14.08,47.84626,-54.09684
2018-06-06 22:00:00+00:00,233.2631,3.46,14.0,47.84626,-54.09684
2018-06-06 22:10:00+00:00,232.2297,3.3,13.84,47.84626,-54.09684
2018-06-06 22:20:00+00:00,242.3914,3.0,13.84,47.84626,-54.09684
2018-06-06 22:30:00+00:00,240.5114,3.04,13.76,47.84626,-54.09684
2018-06-06 22:40:00+00:00,233.4198,3.29,13.68,47.84626,-54.09684
2018-06-06 22:50:00+00:00,235.8465,3.3,13.68,47.84626,-54.09684
2018-06-06 23:00:00+00:00,243.1631,3.09,13.6,47.84626,-54.09684
2018-06-06 23:10:00+00:00,234.1731,2.9,13.44,47.84626,-54.09684
2018-06-06 23:20:00+00:00,224.0465,2.99,13.44,47.84626,-54.09684
2018-06-06 23:30:00+00:00,230.9298,3.1,13.37,47.84626,-54.09684
2018-06-06 23:40:00+00:00,236.2381,2.95,13.37,47.84626,-54.09684
2018-06-06 23:50:00+00:00,231.0114,2.9,13.37,47.84626,-54.09684
